Regional Weather Roundup
Issued by NWS

Home | Current Version | Previous Version | Graphics & Text | Print | Product List | Glossary On
Versions: 1 2 3 4 5 6 7 8 9 10 11 12 13 14 15 16 17 18 19 20 21 22 23 24 25 26 27 28 29 30 31 32 33 34 35 36 37 38 39 40 41 42 43 44 45 46 47 48 49 50
000
ASUS43 KMPX 191510
RWRMN
WEATHER ROUNDUP FOR MINNESOTA
NATIONAL WEATHER SERVICE TWIN CITIES/CHANHASSEN MN
1000 AM CDT SUN OCT 19 2014


NOTE: "FAIR" INDICATES FEW OR NO CLOUDS BELOW 12,000 FEET WITH NO
SIGNIFICANT WEATHER AND/OR OBSTRUCTIONS TO VISIBILITY. N/A MEANS
CURRENT SKY AND/OR WEATHER CONDITIONS ARE NOT AVAILABLE.

MNZ060>063-068>070-191600-
   Twin Cities Metro

CITY           SKY/WX    TMP DP  RH WIND       PRES   REMARKS
TWIN CITIES    CLOUDY    51  40  65 SW10G17   29.91F
ST PAUL        FAIR      50  42  74 S8        29.92F
CRYSTAL        PTSUNNY   52  41  66 SW14      29.89F
BLAINE         PTSUNNY   54  43  66 S12G20    29.89F
LAKEVILLE      PTSUNNY   52  41  66 SW9       29.92S
EDEN PRAIRIE   PTSUNNY   51  41  68 SW12      29.90F
SOUTH ST PAUL  FAIR      50  41  69 S10       29.92S
LAKE ELMO      FAIR      48  41  76 S12       29.92F
$$
MNZ001>005-007-008-013>017-022>024-027-028-191600-
   Northwest Minnesota

CITY           SKY/WX    TMP DP  RH WIND       PRES   REMARKS
BEMIDJI        PTSUNNY   46  40  79 SW8       29.75F
HALLOCK        SUNNY     45  39  81 W3        29.75S
ROSEAU         SUNNY     46  39  76 W7        29.73S
WARROAD        SUNNY     46  41  81 SW10      29.73S
THIEF RVR FALL SUNNY     45  39  81 SW8       29.76S
CROOKSTON      SUNNY     45  41  87 W6        29.78R
FOSSTON        SUNNY     46  41  81 SW13      29.77S
DETROIT LAKES  MOSUNNY   50  41  71 W9        29.79F
MOORHEAD       SUNNY     48  45  87 SW7       29.81S
PARK RAPIDS    PTSUNNY   47  42  83 SW7       29.78F
MAHNOMEN       FAIR      47  40  78 SW12      29.78R
$$
MNZ006-009>011-018-025>026-191600-
   North Central Minnesota

CITY           SKY/WX    TMP DP  RH WIND       PRES   REMARKS
BAUDETTE       SUNNY     46  40  79 SW8       29.73S
FLAG ISLAND    SUNNY     45  39  81 W8        29.72R
INTL FALLS     PTSUNNY   45  39  79 S5        29.75F
WASKISH        SUNNY     48  41  76 CALM      29.74F
BIG FORK       PTSUNNY   46  39  76 SW7       29.76F
LONGVILLE      CLOUDY    46  39  76 S7        29.78S
GRAND RAPIDS   CLOUDY    45  37  76 S7        29.79R
CRANE LAKE     CLOUDY    43  39  87 S3        29.79S
ORR            CLOUDY    41  37  87 CALM      29.75S
COOK           RAIN      45  37  76 SW7       29.78S
WALKER         FAIR      46  39  77 SW8       29.78R
$$
MNZ012-019>021-037-191600-
   Northeast Minnesota

CITY           SKY/WX    TMP DP  RH WIND       PRES   REMARKS
DULUTH         CLOUDY    45  37  73 S13       29.80F
ELY            CLOUDY    43  37  81 S5        29.79F
HIBBING        CLOUDY    44  37  76 S5        29.79F
EVELETH        CLOUDY    43  36  75 S6        29.80F
DULUTH HARBOR  CLOUDY    46  39  76 S6        29.83F
TWO HARBORS    CLOUDY    45  30  57 CALM      29.81F
SILVER BAY     CLOUDY    41  37  87 CALM      29.81F
GRAND MARAIS     N/A     45  40  82 S9        29.85F
G MARAIS ARPRT CLOUDY    37  36  93 SE6       29.83F FOG
$$
MNZ029>031-032-039>041-046>048-054>057-064-191600-
   West Central Minnesota

CITY           SKY/WX    TMP DP  RH WIND       PRES   REMARKS
FERGUS FALLS   SUNNY     50  39  66 SW6       29.83S
WHEATON        SUNNY     52  43  71 SW8       29.85S
MORRIS         SUNNY     54  43  66 W8        29.83S
ALEXANDRIA     MOSUNNY   49  41  74 SW12      29.84S
ELBOW LAKE     FAIR      50  42  73 SW8       29.83S
WADENA         PTSUNNY   48  41  76 SW10      29.79F
GLENWOOD       MOSUNNY   50  43  76 SW10G16   29.84F
APPLETON       SUNNY     55  43  62 W8        29.84F
BENSON         SUNNY     52  43  71 W9        29.85S
ORTONVILLE     SUNNY     55  41  58 W8        29.84S
MADISON        SUNNY     57  43  58 W14       29.85F
WILLMAR        FAIR      52  43  71 SW13      29.87F
$$
MNZ033>034-036-042>043-049>051-058-059-191600-
   Central Minnesota

CITY           SKY/WX    TMP DP  RH WIND       PRES   REMARKS
ST CLOUD       PTSUNNY   51  40  65 SW13      29.86S
SAUK CENTRE    FAIR      50  41  70 SW12      29.84F
PAYNESVILLE    MOSUNNY   49  41  74 S12       29.85F
AITKIN         CLOUDY    52  43  71 S9G17     29.78F
PINE RIVER     PTSUNNY   48  41  76 SW8       29.82F
BRAINERD       PTSUNNY   46  40  79 SW10      29.81F
STAPLES        PTSUNNY   46  39  76 SW8       29.80S
LONG PRAIRIE   FAIR      46  41  81 S14       29.83S
LITTLE FALLS   MOSUNNY   46  39  76 S8        29.82F
LITCHFIELD     PTSUNNY   52  45  76 SW5       29.87F
BUFFALO        PTSUNNY   49  40  72 S8G16     29.89S
MAPLE LAKE     PTSUNNY   50  43  77 S8        29.87F
$$
MNZ037-044-045-052-053-191600-
   East Central Minnesota

CITY           SKY/WX    TMP DP  RH WIND       PRES   REMARKS
PRINCETON      PTSUNNY   50  41  71 S9        29.86F
MORA           PTSUNNY   45  37  76 SW10      29.87F
CAMBRIDGE      PTSUNNY   52  39  62 S7G17     29.85F
RUSH CITY      PTSUNNY   48  40  74 S9        29.87F
MOOSE LAKE     CLOUDY    45  37  76 S9G16     29.81F
HINCKLEY       FAIR      46  41  81 S10       29.85F
CLOQUET        PTSUNNY   45  37  76 S9G16     29.81F
MCGREGOR       PTSUNNY   46  41  81 S10       29.81S
$$
MNZ071>073-080-081-089-090-097-098-191600-
   Southwest Minnesota

CITY           SKY/WX    TMP DP  RH WIND       PRES   REMARKS
MONTEVIDEO     SUNNY     55  43  62 W7        29.87S
GRANITE FALLS  SUNNY     53  41  63 SW16G22   29.89S
CANBY          SUNNY     54  43  65 W12G22    29.87S
MARSHALL       MOSUNNY   54  37  54 SW26G33   29.85F
REDWOOD FALLS  MOSUNNY   54  41  61 SW14G22   29.88S
OLIVIA         MOSUNNY   52  41  66 SW13      29.87F
PIPESTONE      MOSUNNY   50  41  71 SW15      29.92S
WINDOM         PTSUNNY   52  41  66 SW22      29.92S
WORTHINGTON    PTSUNNY   48  39  71 SW13G20   29.95S
JACKSON        PTSUNNY   52  39  62 SW17G24   29.95S
TRACY          MOSUNNY   52  41  66 SW20G30   29.89S
SLAYTON        PTSUNNY   49  41  72 SW15      29.93S
$$
MNZ065>067-074>077-082>085-091>093-191600-
   South Central Minnesota

CITY           SKY/WX    TMP DP  RH WIND       PRES   REMARKS
MANKATO        CLOUDY    50  37  62 SW15      29.93S
NEW ULM        CLOUDY    52  43  71 SW10      29.91S
ST JAMES       PTSUNNY   54  43  66 SW16G25   29.92F
FAIRMONT       PTSUNNY   48  39  71 SW16G22   29.95S
GLENCOE        PTSUNNY   51  44  76 S12       29.89F
FARIBAULT      CLOUDY    50  43  76 S14G20    29.94F
OWATONNA       CLOUDY    50  39  66 S14G22    29.95F
WASECA         CLOUDY    48  37  66 S15G22    29.96F
ALBERT LEA     CLOUDY    48  41  76 SW13G21   29.98S
$$
MNZ078>079-086>088-094>096-191600-
   Southeast Minnesota

CITY           SKY/WX    TMP DP  RH WIND       PRES   REMARKS
ROCHESTER      PTSUNNY   49  41  74 SW15G25   29.99F
RED WING       CLOUDY    52  41  66 SW5       29.94F
STANTON        CLOUDY    51  41  70 SW13      29.92F
DODGE CENTER   PTSUNNY   46  43  87 SW18G24   29.96F
WINONA         CLOUDY    48  41  76 SW8       30.00F
AUSTIN         CLOUDY    46  43  87 S16G23    29.99F
PRESTON        CLOUDY    46  40  80 SW20G26   30.01F
$$
ABBREVIATIONS USED IN REMARKS
   TC - TEMPERATURES IN CELSIUS
  WCI - WIND CHILL INDEX
   HX - HEAT INDEX
  VSB - VISIBILITY
$$



USA.gov is the U.S. government's official web portal to all federal, state and local government web resources and services.